User: anonymous   Login
Location: Unspecified
(0.0000°N, 0.0000°E)
Time: 00:31:58
(UTC+00:00)
Language:

FASTSAT-HSV01 (USA 220) - Orbit

View from above orbital plane
View from above orbital plane
View from above satellite
View from above satellite

Ground track
Ground track

The orbit data is extracted from the following two-line orbital elements,

1 37225U 10062D   24201.63067889  .00001282  00000-0  17511-3 0  9995
2 37225  71.9720 269.4485 0017280 350.1532   9.9290 14.80342807 10829
Epoch (UTC): 19 July 2024 15:08:10
Eccentricity: 0.0017280
inclination: 71.9720°
perigee height: 616 km
apogee height: 640 km
right ascension of ascending node: 269.4485°
argument of perigee: 350.1532°
revolutions per day: 14.80342807
mean anomaly at epoch: 9.9290°
orbit number at epoch: 1082

The dashed part of the orbit path shows where the satellite is in the earth's shadow,  

DLR